Location: Tofino
(49.1330°N, 125.9000°W)
Time: 17:01:54
(UTC-07:00)

OTV 5 (USA 277) - Visible Passes

Search period start: 18 October 2017 00:00
Search period end: 28 October 2017 00:00
Orbit: 404 x 417 km, 43.0° (Epoch: 07 September)

Date Brightness Start Highest point End Pass type
(mag) Time Alt. Az. Time Alt. Az. Time Alt. Az.
18 Oct ? 19:30:25 10° WSW 19:33:18 26° S 19:35:51 12° SE visible
18 Oct ? 21:08:20 10° SW 21:08:36 11° SW 21:08:36 11° SW visible
19 Oct ? 20:16:52 10° WSW 20:19:05 16° SSW 20:19:58 15° S visible
20 Oct ? 19:25:38 10° WSW 19:28:11 20° SSW 19:30:44 10° SSE visible
22 Oct ? 19:21:22 10° SW 19:22:59 13° SSW 19:24:35 10° S visible
